Weather History for Spokane Fairchild, WA

Change the Weather History Date:

Monday, October 14, 2013

  Actual Average Record
Temperature  
Mean Temperature 43 °F -  
Max Temperature 55 °F 57 °F 69 °F (2004)
Min Temperature 32 °F 36 °F 32 °F (1999)
Degree Days  
Heating Degree Days 22    
Moisture  
Dew Point 30 °F    
Average Humidity 75    
Maximum Humidity 100    
Minimum Humidity 34    
Precipitation  
Precipitation 0.00 in - - ()
Sea Level Pressure  
Sea Level Pressure 30.34 in    
Wind  
Wind Speed 3 mph (NNE)    
Max Wind Speed 9 mph    
Max Gust Speed -    
Visibility 4 miles    
Events      
Averages and records for this station are not official NWS values.
T = Trace of Precipitation, MM = Missing Value Source: NWS Daily Summary

Daily Weather History Graph

Daily Weather History Graph

Search for Another Location

Airport:

Trip Planner

Search our weather history database for the weather conditions in past years. The results will help you decide how hot, cold, wet, or windy it might be!

Date:

Astronomy

Oct. 14, 2013 Rise Set
Actual Time 7:08 AM PDT 6:03 PM PDT
Civil Twilight 6:37 AM PDT 6:34 PM PDT
Nautical Twilight 6:01 AM PDT 7:10 PM PDT
Astronomical Twilight 5:25 AM PDT 7:46 PM PDT
Moon 3:51 PM PDT (10/14) 2:12 AM PDT (10/14)
Length of Visible Light 11h 57m
Length of Day
10h 55m
Waxing Gibbous, 80% of the Moon is Illuminated
Oct 14
Waxing Gibbous
Oct 18
Full
Oct 26
Last Quarter
Nov 3
New
Nov 9
First Quarter

Hourly Weather History & Observations

Time (PDT) Temp. Windchill Dew Point Humidity Pressure Visibility Wind Dir Wind Speed Gust Speed Precip Events Conditions
12:12 AM 35.6 °F - 28.4 °F 75% 30.27 in 2.5 mi North 2.3 mph - N/A   Haze
12:14 AM 35.6 °F - 28.4 °F 75% 30.27 in 2.0 mi NNE 2.3 mph - N/A   Haze
12:21 AM 35.6 °F - 26.6 °F 70% 30.27 in 3.0 mi ESE 2.3 mph - N/A   Haze
12:22 AM 35.6 °F - 26.6 °F 70% 30.27 in 3.0 mi SE 2.3 mph - N/A   Haze
12:42 AM 35.6 °F - 26.6 °F 70% 30.27 in 5.0 mi Calm Calm - N/A   Haze
12:46 AM 32.0 °F - 26.6 °F 80% 30.27 in 5.0 mi NNW 1.2 mph - N/A   Haze
12:58 AM 32.0 °F - 28.4 °F 87% 30.32 in 4.0 mi NE 2.3 mph - N/A   Haze
1:16 AM 32.0 °F - 28.4 °F 87% 30.28 in 5.0 mi Calm Calm - N/A   Haze
1:17 AM 32.0 °F - 28.4 °F 87% 30.28 in 5.0 mi Calm Calm - N/A   Clear
1:22 AM 32.0 °F - 28.4 °F 87% 30.28 in 5.0 mi North 2.3 mph - N/A   Clear
1:29 AM 33.8 °F 29.6 °F 26.6 °F 75% 30.28 in 4.0 mi North 4.6 mph - N/A   Haze
1:58 AM 34.9 °F 32.0 °F 27.0 °F 73% 30.33 in 4.0 mi North 3.5 mph - 0.00 in   Haze
2:10 AM 35.6 °F 31.7 °F 28.4 °F 75% 30.29 in 2.5 mi North 4.6 mph - N/A   Haze
2:14 AM 37.4 °F 33.8 °F 28.4 °F 70% 30.29 in 3.0 mi North 4.6 mph - N/A   Haze
2:18 AM 37.4 °F 33.8 °F 28.4 °F 70% 30.28 in 3.0 mi North 4.6 mph - N/A   Haze
2:58 AM 37.4 °F 34.9 °F 32.0 °F 81% 30.32 in 4.0 mi NNE 3.5 mph - N/A   Haze
3:01 AM 35.6 °F 32.8 °F 30.2 °F 81% 30.28 in 3.0 mi NNE 3.5 mph - N/A   Clear
3:21 AM 33.8 °F - 30.2 °F 87% 30.29 in 4.0 mi NNE 2.3 mph - N/A   Haze
3:47 AM 35.6 °F 32.8 °F 32.0 °F 87% 30.29 in 3.0 mi NNE 3.5 mph - N/A   Clear
3:49 AM 35.6 °F 32.8 °F 32.0 °F 87% 30.29 in 2.5 mi NE 3.5 mph - N/A   Clear
3:53 AM 35.6 °F - 32.0 °F 87% 30.29 in 2.0 mi NE 2.3 mph - N/A   Clear
3:54 AM 35.6 °F - 32.0 °F 87% 30.29 in 2.0 mi NE 2.3 mph - N/A   Clear
3:58 AM 34.7 °F - 31.3 °F 87% 30.33 in 2.0 mi NE 2.3 mph - 0.00 in   Clear
4:00 AM 33.8 °F - 32.0 °F 93% 30.29 in 2.0 mi NE 2.3 mph - N/A   Clear
4:02 AM 33.8 °F - 32.0 °F 93% 30.29 in 2.5 mi NNE 2.3 mph - N/A   Clear
4:08 AM 33.8 °F - 30.2 °F 87% 30.29 in 3.0 mi NNE 2.3 mph - N/A   Clear
4:16 AM 33.8 °F - 32.0 °F 93% 30.29 in 2.5 mi NNE 2.3 mph - N/A   Clear
4:32 AM 32.0 °F 28.7 °F 32.0 °F 100% 30.30 in 2.5 mi NNE 3.5 mph - N/A   Clear
4:52 AM 32.0 °F 28.7 °F 30.2 °F 93% 30.30 in 2.0 mi NE 3.5 mph - N/A   Clear
4:55 AM 32.0 °F 28.7 °F 30.2 °F 93% 30.30 in 2.0 mi NE 3.5 mph - N/A   Clear
4:58 AM 32.4 °F 29.1 °F 29.8 °F 90% 30.35 in 2.0 mi NE 3.5 mph - N/A   Clear
5:03 AM 32.0 °F 28.7 °F 30.2 °F 93% 30.31 in 2.5 mi NE 3.5 mph - N/A   Clear
5:27 AM 32.0 °F - 30.2 °F 93% 30.31 in 3.0 mi NNE 2.3 mph - N/A   Clear
5:28 AM 32.0 °F - 30.2 °F 93% 30.31 in 3.0 mi NNE 2.3 mph - N/A   Clear
5:58 AM 32.0 °F - 32.0 °F 100% 30.38 in 4.0 mi North 2.3 mph - N/A   Clear
6:47 AM 32.0 °F 28.7 °F 32.0 °F 100% 30.33 in 4.0 mi North 3.5 mph - N/A   Clear
7:22 AM 32.0 °F 26.4 °F 30.2 °F 93% 30.34 in 3.0 mi North 5.8 mph - N/A   Clear
7:26 AM 32.0 °F 26.4 °F 30.2 °F 93% 30.34 in 2.5 mi North 5.8 mph - N/A   Clear
7:36 AM 32.0 °F 26.4 °F 28.4 °F 87% 30.34 in 2.0 mi North 5.8 mph - N/A   Clear
7:44 AM 32.0 °F 27.5 °F 28.4 °F 87% 30.34 in 1.5 mi North 4.6 mph - N/A   Haze
7:59 AM 34.5 °F 29.4 °F 29.7 °F 82% 30.35 in 1.8 mi North 5.8 mph - N/A   Haze
8:01 AM 35.6 °F 29.9 °F 30.2 °F 81% 30.35 in 2.0 mi North 6.9 mph - N/A   Haze
8:02 AM 35.6 °F 29.9 °F 30.2 °F 81% 30.35 in 2.0 mi North 6.9 mph - N/A   Haze
8:09 AM 35.6 °F 29.9 °F 30.2 °F 81% 30.35 in 1.8 mi North 6.9 mph - N/A   Haze
8:11 AM 35.6 °F 29.2 °F 32.0 °F 87% 30.35 in 2.0 mi North 8.1 mph - N/A   Haze
8:29 AM 37.4 °F 32.8 °F 32.0 °F 81% 30.36 in 1.2 mi North 5.8 mph - N/A   Haze
8:38 AM 39.2 °F 34.2 °F 32.0 °F 75% 30.36 in 1.0 mi North 6.9 mph - N/A   Haze
8:39 AM 39.2 °F 34.2 °F 32.0 °F 75% 30.36 in 1.0 mi NNE 6.9 mph - N/A   Haze
8:52 AM 39.2 °F 34.2 °F 32.0 °F 75% 30.36 in 1.0 mi NNE 6.9 mph - N/A   Haze
8:56 AM 39.2 °F 34.2 °F 32.0 °F 75% 30.37 in 0.8 mi NNE 6.9 mph - N/A   Haze
8:58 AM 39.2 °F 34.2 °F 32.0 °F 75% 30.43 in 0.8 mi NNE 6.9 mph - N/A   Haze
9:16 AM 41.0 °F 35.8 °F 32.0 °F 70% 30.37 in 1.0 mi NNE 8.1 mph - N/A   Haze
9:20 AM 41.0 °F 35.2 °F 32.0 °F 70% 30.37 in 0.8 mi NNE 9.2 mph - N/A   Haze
9:26 AM 42.8 °F 38.0 °F 32.0 °F 66% 30.37 in 0.8 mi NNE 8.1 mph - N/A   Haze
9:55 AM 42.8 °F 38.0 °F 32.0 °F 66% 30.38 in 0.8 mi North 8.1 mph - N/A   Haze
9:58 AM 43.5 °F 38.3 °F 32.0 °F 64% 30.43 in 0.8 mi NNE 9.2 mph - N/A   Haze
10:55 AM 46.4 °F 43.5 °F 32.0 °F 57% 30.43 in 10.0 mi NNE 5.8 mph - N/A   Clear
11:55 AM 49.1 °F - 31.8 °F 51% 30.43 in 10.0 mi North 8.1 mph - N/A   Clear
12:55 PM 51.8 °F - 30.4 °F 44% 30.43 in 10.0 mi Variable 4.6 mph - N/A   Clear
1:55 PM 53.4 °F - 29.1 °F 39% 30.41 in 10.0 mi NE 5.8 mph - N/A   Clear
2:55 PM 54.5 °F - 28.0 °F 36% 30.40 in 10.0 mi North 6.9 mph - N/A   Clear
3:55 PM 54.9 °F - 27.1 °F 34% 30.40 in 10.0 mi NNE 5.8 mph - N/A   Clear
4:55 PM 54.1 °F - 27.1 °F 35% 30.41 in 10.0 mi North 4.6 mph - N/A   Clear
5:55 PM 51.6 °F - 27.5 °F 39% 30.41 in 10.0 mi Calm Calm - N/A   Clear
6:55 PM 47.7 °F - 27.5 °F 46% 30.42 in 10.0 mi WNW 5.8 mph - N/A   Clear
7:58 PM 41.5 °F 38.6 °F 27.9 °F 58% 30.43 in 10.0 mi West 4.6 mph - N/A   Clear
8:58 PM 41.9 °F 40.0 °F 27.1 °F 56% 30.43 in 10.0 mi SW 3.5 mph - N/A   Clear
9:58 PM 36.9 °F 33.1 °F 27.7 °F 69% 30.45 in 10.0 mi West 4.6 mph - N/A   Clear
10:58 PM 36.3 °F - 26.4 °F 67% 30.40 in 10.0 mi NNW 2.3 mph - N/A   Clear
11:27 PM 41.0 °F 39.0 °F 26.6 °F 57% 30.39 in 10.0 mi NNW 3.5 mph - N/A   Clear
11:41 PM 42.8 °F - 26.6 °F 53% 30.39 in 10.0 mi NNW 2.3 mph - N/A   Clear
11:58 PM 39.2 °F - 26.4 °F 60% 30.39 in 10.0 mi NNW 2.3 mph - 0.00 in   Clear